| time (UTC) | temp F | wind direction | speed MPH | gust MPH | rain 1hr in | rain 24hr in | rain mn in | humidity % | barometer mb |
| 20260503003117 | 73 | 293 | 3.0 | 4.0 | 0.00 | 0.01 | 0.01 | 45 | 1013.5 |
| 20260503002117 | 73 | 270 | 2.0 | 2.0 | 0.00 | 0.01 | 0.01 | 44 | 1013.5 |
| 20260503001117 | 74 | 293 | 3.0 | 5.0 | 0.00 | 0.01 | 0.01 | 44 | 1013.4 |
| 20260503000137 | 73 | 270 | 3.0 | 6.0 | 0.00 | 0.01 | 0.01 | 44 | 1013.5 |
| 20260502235117 | 74 | 293 | 5.0 | 7.0 | 0.00 | 0.01 | 0.01 | 44 | 1013.5 |
| 20260502234116 | 73 | 293 | 3.0 | 4.0 | 0.00 | 0.01 | 0.01 | 44 | 1013.6 |
| 20260502233117 | 73 | 225 | 3.0 | 5.0 | 0.00 | 0.01 | 0.01 | 44 | 1013.7 |
| 20260502232137 | 73 | 293 | 4.0 | 7.0 | 0.00 | 0.01 | 0.01 | 44 | 1013.7 |
| 20260502231116 | 72 | 293 | 5.0 | 8.0 | 0.00 | 0.01 | 0.01 | 45 | 1013.8 |
| 20260502230137 | 72 | 248 | 2.0 | 3.0 | 0.00 | 0.01 | 0.01 | 47 | 1014.1 |
| 20260502225116 | 71 | 270 | 4.0 | 8.0 | 0.00 | 0.01 | 0.01 | 47 | 1014.3 |
| 20260502224117 | 71 | 315 | 3.0 | 4.0 | 0.00 | 0.01 | 0.01 | 47 | 1014.5 |
| 20260502223117 | 71 | 338 | 2.0 | 4.0 | 0.00 | 0.01 | 0.01 | 47 | 1014.5 |
| 20260502222116 | 70 | 248 | 3.0 | 4.0 | 0.00 | 0.01 | 0.01 | 49 | 1014.6 |
| 20260502221117 | 70 | 270 | 6.0 | 8.0 | 0.00 | 0.01 | 0.01 | 47 | 1014.8 |
| 20260502220116 | 70 | 293 | 4.0 | 6.0 | 0.00 | 0.01 | 0.01 | 48 | 1014.9 |
| 20260502215117 | 70 | 293 | 3.0 | 7.0 | 0.00 | 0.01 | 0.01 | 48 | 1015.0 |
| 20260502214116 | 69 | 338 | 4.0 | 6.0 | 0.00 | 0.01 | 0.01 | 50 | 1015.2 |
| 20260502213117 | 69 | 248 | 2.0 | 2.0 | 0.00 | 0.01 | 0.01 | 48 | 1015.3 |
| 20260502212117 | 68 | 225 | 2.0 | 4.0 | 0.00 | 0.01 | 0.01 | 50 | 1015.4 |
| 20260502211116 | 68 | 293 | 7.0 | 8.0 | 0.00 | 0.01 | 0.01 | 50 | 1015.5 |
| 20260502210116 | 67 | 225 | 2.0 | 3.0 | 0.00 | 0.01 | 0.01 | 51 | 1015.8 |
| 20260502205117 | 66 | 0 | 3.0 | 5.0 | 0.00 | 0.01 | 0.01 | 54 | 1015.8 |
| 20260502204116 | 65 | 270 | 4.0 | 7.0 | 0.00 | 0.01 | 0.01 | 55 | 1016.0 |
| 20260502203407 | 64 | 315 | 3.0 | 5.0 | 0.00 | 0.01 | 0.01 | 56 | 1016.0 |
| 20260502203216 | 64 | 293 | 4.0 | 6.0 | 0.00 | 0.01 | 0.01 | 56 | 1016.0 |
| 20260502202216 | 65 | 45 | 1.0 | 2.0 | 0.00 | 0.01 | 0.01 | 53 | 1016.2 |
| 20260502201216 | 65 | 270 | 5.0 | 8.0 | 0.00 | 0.01 | 0.01 | 53 | 1016.2 |
| 20260502200216 | 64 | 338 | 2.0 | 3.0 | 0.00 | 0.01 | 0.01 | 57 | 1016.2 |
| 20260502195216 | 63 | 315 | 1.0 | 2.0 | 0.00 | 0.01 | 0.01 | 56 | 1016.3 |
| 20260502194257 | 62 | 135 | 2.0 | 2.0 | 0.00 | 0.01 | 0.01 | 55 | 1016.5 |
| 20260502193216 | 61 | 225 | 2.0 | 3.0 | 0.00 | 0.01 | 0.01 | 58 | 1016.6 |
| 20260502192216 | 61 | 338 | 4.0 | 6.0 | 0.00 | 0.01 | 0.01 | 59 | 1016.7 |
| 20260502191216 | 60 | 270 | 6.0 | 8.0 | 0.00 | 0.01 | 0.01 | 61 | 1016.8 |
| 20260502190216 | 59 | 293 | 6.0 | 9.0 | 0.00 | 0.01 | 0.01 | 61 | 1016.9 |
| 20260502185216 | 57 | 270 | 3.0 | 4.0 | 0.00 | 0.01 | 0.01 | 64 | 1016.6 |
| 20260502184216 | 56 | 293 | 2.0 | 4.0 | 0.00 | 0.01 | 0.01 | 65 | 1016.7 |
| 20260502183217 | 55 | 270 | 2.0 | 4.0 | 0.00 | 0.01 | 0.01 | 65 | 1016.8 |
| 20260502182216 | 55 | 135 | 1.0 | 2.0 | 0.00 | 0.01 | 0.01 | 64 | 1017.1 |
| 20260502181216 | 54 | 338 | 4.0 | 5.0 | 0.00 | 0.01 | 0.01 | 65 | 1017.3 |
| 20260502180216 | 54 | 0 | 1.0 | 2.0 | 0.00 | 0.01 | 0.01 | 65 | 1017.4 |
| 20260502170216 | 52 | 293 | 2.0 | 3.0 | 0.00 | 0.01 | 0.01 | 69 | 1017.3 |
| 20260502164256 | 51 | 293 | 2.0 | 3.0 | 0.00 | 0.01 | 0.01 | 70 | 1017.5 |
| 20260502163216 | 51 | 315 | 2.0 | 3.0 | 0.00 | 0.01 | 0.01 | 71 | 1017.5 |
| 20260502162216 | 51 | 23 | 2.0 | 4.0 | 0.00 | 0.01 | 0.01 | 73 | 1017.6 |
| 20260502161216 | 51 | 315 | 2.0 | 3.0 | 0.00 | 0.01 | 0.01 | 74 | 1017.6 |
| 20260502160216 | 51 | 0 | 2.0 | 3.0 | 0.00 | 0.01 | 0.01 | 74 | 1017.7 |
| 20260502152216 | 50 | 315 | 2.0 | 3.0 | 0.00 | 0.01 | 0.01 | 78 | 1017.9 |
| 20260502151216 | 50 | 315 | 2.0 | 3.0 | 0.00 | 0.01 | 0.01 | 79 | 1017.9 |
| 20260502150216 | 50 | 293 | 2.0 | 2.0 | 0.00 | 0.01 | 0.01 | 79 | 1017.9 |
| 20260502130215 | 49 | 315 | 2.0 | 3.0 | 0.00 | 0.01 | 0.01 | 82 | 1017.7 |
| 20260502123217 | 49 | 315 | 2.0 | 3.0 | 0.00 | 0.01 | 0.01 | 82 | 1017.6 |
| 20260502122217 | 49 | 293 | 3.0 | 4.0 | 0.00 | 0.01 | 0.01 | 82 | 1017.6 |
| 20260502121258 | 49 | 315 | 3.0 | 5.0 | 0.00 | 0.01 | 0.01 | 82 | 1017.6 |
| 20260502120217 | 49 | 315 | 2.0 | 2.0 | 0.00 | 0.01 | 0.01 | 81 | 1017.5 |
| 20260502115237 | 49 | 293 | 2.0 | 3.0 | 0.00 | 0.01 | 0.01 | 81 | 1017.6 |
| 20260502114217 | 49 | 293 | 3.0 | 4.0 | 0.00 | 0.01 | 0.01 | 81 | 1017.5 |
| 20260502113217 | 49 | 315 | 3.0 | 5.0 | 0.00 | 0.01 | 0.01 | 81 | 1017.4 |
| 20260502112217 | 49 | 315 | 3.0 | 7.0 | 0.00 | 0.01 | 0.01 | 81 | 1017.5 |
| 20260502111217 | 49 | 315 | 4.0 | 6.0 | 0.00 | 0.01 | 0.01 | 80 | 1017.4 |
| 20260502110238 | 49 | 270 | 3.0 | 4.0 | 0.00 | 0.01 | 0.01 | 80 | 1017.6 |
| 20260502105217 | 49 | 270 | 2.0 | 3.0 | 0.00 | 0.01 | 0.01 | 78 | 1017.5 |
| 20260502104217 | 49 | 293 | 3.0 | 4.0 | 0.00 | 0.01 | 0.01 | 77 | 1017.5 |
| 20260502103237 | 49 | 338 | 2.0 | 3.0 | 0.00 | 0.01 | 0.01 | 76 | 1017.4 |
| 20260502102238 | 49 | 315 | 3.0 | 5.0 | 0.00 | 0.01 | 0.01 | 76 | 1017.3 |
| 20260502101217 | 49 | 0 | 3.0 | 4.0 | 0.00 | 0.01 | 0.01 | 76 | 1017.6 |
| 20260502100217 | 49 | 293 | 2.0 | 3.0 | 0.01 | 0.01 | 0.01 | 76 | 1017.9 |
| 20260502091217 | 50 | 203 | 2.0 | 3.0 | 0.01 | 0.01 | 0.01 | 69 | 1018.9 |
| 20260502090217 | 50 | 158 | 8.0 | 12.0 | 0.00 | 0.00 | 0.00 | 68 | 1019.2 |
| 20260502071216 | 50 | 315 | 6.0 | 9.0 | 0.00 | 0.00 | 0.00 | 65 | 1018.3 |
| 20260502070217 | 50 | 293 | 5.0 | 7.0 | 0.00 | 0.00 | 0.00 | 65 | 1018.2 |
| 20260502065215 | 51 | 270 | 5.0 | 9.0 | 0.00 | 0.00 | 0.00 | 65 | 1018.2 |
| 20260502064218 | 51 | 315 | 4.0 | 5.0 | 0.00 | 0.00 | 0.00 | 65 | 1018.3 |
| 20260502063218 | 51 | 293 | 5.0 | 8.0 | 0.00 | 0.00 | 0.00 | 65 | 1018.3 |
| 20260502062238 | 51 | 293 | 5.0 | 8.0 | 0.00 | 0.00 | 0.00 | 65 | 1018.3 |
| 20260502061217 | 52 | 293 | 6.0 | 12.0 | 0.00 | 0.00 | 0.00 | 64 | 1018.1 |
| 20260502060218 | 52 | 315 | 6.0 | 9.0 | 0.00 | 0.00 | 0.00 | 63 | 1018.0 |
| 20260502055218 | 53 | 315 | 8.0 | 12.0 | 0.00 | 0.00 | 0.00 | 62 | 1017.9 |
| 20260502054217 | 53 | 315 | 5.0 | 8.0 | 0.00 | 0.00 | 0.00 | 62 | 1018.2 |
| 20260502053217 | 53 | 315 | 6.0 | 11.0 | 0.00 | 0.00 | 0.00 | 61 | 1018.0 |
| 20260502052238 | 54 | 315 | 8.0 | 11.0 | 0.00 | 0.00 | 0.00 | 61 | 1017.7 |
| 20260502051215 | 54 | 338 | 4.0 | 8.0 | 0.00 | 0.00 | 0.00 | 60 | 1017.5 |
| 20260502050237 | 54 | 315 | 8.0 | 13.0 | 0.00 | 0.00 | 0.00 | 60 | 1017.5 |
| 20260502045217 | 55 | 315 | 10.0 | 14.0 | 0.00 | 0.00 | 0.00 | 60 | 1017.3 |
| 20260502044218 | 55 | 338 | 7.0 | 11.0 | 0.00 | 0.00 | 0.00 | 59 | 1017.4 |
| 20260502043217 | 56 | 293 | 7.0 | 13.0 | 0.00 | 0.00 | 0.00 | 59 | 1017.3 |
| 20260502042217 | 57 | 293 | 9.0 | 13.0 | 0.00 | 0.00 | 0.00 | 58 | 1017.2 |
| 20260502041217 | 57 | 338 | 7.0 | 12.0 | 0.00 | 0.00 | 0.00 | 57 | 1017.0 |
| 20260502040217 | 58 | 338 | 8.0 | 15.0 | 0.00 | 0.00 | 0.00 | 57 | 1017.0 |
| 20260502035217 | 59 | 293 | 5.0 | 9.0 | 0.00 | 0.00 | 0.00 | 56 | 1016.9 |
| 20260502034217 | 59 | 293 | 5.0 | 9.0 | 0.00 | 0.00 | 0.00 | 55 | 1016.8 |
| 20260502033217 | 60 | 315 | 7.0 | 12.0 | 0.00 | 0.00 | 0.00 | 53 | 1016.7 |
| 20260502032217 | 61 | 0 | 6.0 | 9.0 | 0.00 | 0.00 | 0.00 | 53 | 1016.7 |
| 20260502031218 | 62 | 338 | 5.0 | 9.0 | 0.00 | 0.00 | 0.00 | 53 | 1016.6 |
| 20260502030217 | 63 | 315 | 5.0 | 9.0 | 0.00 | 0.00 | 0.00 | 52 | 1016.4 |
| 20260502025217 | 63 | 315 | 7.0 | 11.0 | 0.00 | 0.00 | 0.00 | 51 | 1016.3 |
| 20260502024217 | 64 | 338 | 4.0 | 6.0 | 0.00 | 0.00 | 0.00 | 50 | 1016.3 |
| 20260502023217 | 65 | 315 | 6.0 | 9.0 | 0.00 | 0.00 | 0.00 | 49 | 1016.2 |
| 20260502022217 | 66 | 0 | 5.0 | 7.0 | 0.00 | 0.00 | 0.00 | 48 | 1016.1 |
| 20260502021217 | 67 | 315 | 6.0 | 9.0 | 0.00 | 0.00 | 0.00 | 46 | 1016.0 |
| 20260502020217 | 68 | 315 | 6.0 | 10.0 | 0.00 | 0.00 | 0.00 | 42 | 1016.0 |
| 20260502015217 | 68 | 315 | 5.0 | 8.0 | 0.00 | 0.00 | 0.00 | 39 | 1016.0 |
| 20260502014217 | 69 | 338 | 6.0 | 8.0 | 0.00 | 0.00 | 0.00 | 38 | 1016.1 |
| 20260502013217 | 70 | 338 | 5.0 | 9.0 | 0.00 | 0.00 | 0.00 | 35 | 1016.0 |
| 20260502012216 | 71 | 338 | 6.0 | 10.0 | 0.00 | 0.00 | 0.00 | 35 | 1016.0 |
| 20260502011217 | 72 | 338 | 4.0 | 7.0 | 0.00 | 0.00 | 0.00 | 36 | 1016.0 |
| 20260502010217 | 73 | 315 | 6.0 | 12.0 | 0.00 | 0.00 | 0.00 | 35 | 1015.9 |
| 20260502005217 | 74 | 315 | 6.0 | 11.0 | 0.00 | 0.00 | 0.00 | 36 | 1015.9 |
| 20260502004217 | 74 | 23 | 5.0 | 10.0 | 0.00 | 0.00 | 0.00 | 36 | 1015.8 |